SOYUZ-TMA 18M

Last updated on Thu Mar 03 2016 01:35:26 GMT+0000 (Coordinated Universal Time)

1 40885U 15043A 16061.59601944 .00005853 00000-0 94888-4 0 9992 2 40885 51.6425 234.5782 0003974 180.4826 259.1604 15.54332728 28235
UTC large
Height (km)
Speed (km/s)
/
Latitude / Longitude
Inclination (degrees)
Orbital Period (minutes)
Azimuth
Elevation
Range (km)
Doppler Factor

Next 0 passes for location: London (51.5072 / 0.1276)

Sorry there are no passes over London.